Location: Shades State Park
(39.9310°N, 87.0690°W)
Time: 16:49:26
(UTC-04:00)

ISS - Visible Passes

Search period start: 29 March 2015 00:00
Search period end: 08 April 2015 00:00
Orbit: 396 x 406 km, 51.6° (Epoch: 29 March)

Date Brightness Start Highest point End Pass type
(mag) Time Alt. Az. Time Alt. Az. Time Alt. Az.
29 Mar 0.1 04:53:34 12° NE 04:53:34 12° NE 04:54:10 10° NE visible
29 Mar -2.9 06:26:10 11° NW 06:29:10 60° NE 06:32:22 10° ESE visible
30 Mar -1.8 05:35:23 32° NNE 05:35:42 33° NNE 05:38:40 10° E visible
31 Mar -3.3 06:17:27 31° WNW 06:18:43 56° SW 06:21:53 10° SE visible
01 Apr -1.3 05:27:10 23° ESE 05:27:10 23° ESE 05:28:31 10° ESE visible
01 Apr -1.2 07:00:07 10° WSW 07:01:20 11° SW 07:02:25 10° SSW visible
02 Apr -1.2 06:09:52 14° S 06:09:52 14° S 06:10:38 10° S visible
02 Apr -1.4 21:08:20 10° SSE 21:09:53 15° SE 21:09:53 15° SE visible
03 Apr -3.5 21:49:35 10° SW 21:52:44 72° SSE 21:52:44 72° SSE visible
04 Apr -2.6 20:56:23 10° SSW 20:59:21 34° SE 21:02:23 10° ENE visible
04 Apr -1.2 22:32:53 10° W 22:35:13 27° NW 22:35:13 27° NW visible
05 Apr -2.4 21:38:55 10° WSW 21:42:05 48° NNW 21:44:41 14° NE visible
06 Apr -3.4 20:45:12 10° SW 20:48:28 85° SE 20:51:44 10° NE visible
06 Apr -0.7 22:22:52 10° WNW 22:25:13 18° NNW 22:26:27 15° N visible
07 Apr -1.2 21:28:33 10° W 21:31:23 26° NNW 21:34:11 10° NNE visible
07 Apr 0.1 23:07:31 10° NNW 23:07:58 11° NNW 23:07:58 11° NNW visible
